EUTELSAT KONNECT

Last updated on Tue Sep 16 2025 00:02:50 GMT+0000 (Coordinated Universal Time)

1 45027U 20005B 25258.33794633 .00000033 00000+0 00000+0 0 9999 2 45027 0.0651 98.8788 0001606 78.0857 306.4251 1.00269005 21577
UTC large
Height (km)
Speed (km/s)
/
Latitude / Longitude
Inclination (degrees)
Orbital Period (minutes)
Azimuth
Elevation
Range (km)
Doppler Factor

Next 0 passes for location: London (51.5072 / 0.1276)

Sorry there are no passes over London.